This demonstration page uses our WeatherBlox Daily Observations layout. Learn more.

Left ArrowRight Arrow

Hourly Observations for October 21, 2021

Temp ( °F °C ) Dew Point ( °F °C ) Humidity (%) Winds ( mph kmh ) Pressure ( in mb ) Visibility ( mi km ) Precip ( " mm )
12:51 am 00:51 Clear 51 10.6 34 1.1 52 52 N N/A 30.05 1018 10 16 N/A
1:51 am 01:51 Clear 52 11.1 34 1.1 50 50 NNE 5 7 30.04 1017 10 16 N/A
2:51 am 02:51 Clear 52 11.1 34 1.1 50 50 NE 5 7 30.04 1017 10 16 N/A
3:51 am 03:51 Clear 51 10.6 35 1.7 54 54 N N/A 30.05 1018 10 16 N/A
4:51 am 04:51 Clear 47 8.3 34 1.1 61 61 NE 3 6 30.07 1018 10 16 N/A
5:51 am 05:51 Clear 47 8.3 34 1.1 61 61 VRB 5 7 30.09 1019 10 16 N/A
6:51 am 06:51 Sunny 47 8.3 34 1.1 61 61 NW 3 6 30.12 1020 10 16 N/A
7:51 am 07:51 Sunny 58 14.4 36 2.2 44 44 N N/A 30.14 1021 10 16 N/A
8:51 am 08:51 Sunny 64 17.8 35 1.7 34 34 N N/A 30.14 1021 10 16 N/A
9:51 am 09:51 Sunny 72 22.2 33 0.6 24 24 ESE 6 9 30.12 1020 10 16 N/A
10:51 am 10:51 Sunny 76 24.4 33 0.6 21 21 SE 7 11 30.11 1020 10 16 N/A
11:51 am 11:51 Sunny 79 26.1 33 0.6 19 19 VRB 5 7 30.08 1019 10 16 N/A
12:51 pm 12:51 Sunny 82 27.8 34 1.1 18 18 S 6 9 30.04 1017 10 16 N/A
1:51 pm 13:51 Sunny 85 29.4 36 2.2 17 17 N N/A 30.00 1016 10 16 N/A
2:51 pm 14:51 Sunny 86 30 36 2.2 17 17 VRB 3 6 29.98 1015 10 16 N/A
3:51 pm 15:51 Sunny 87 30.6 35 1.7 16 16 N 5 7 29.97 1015 10 16 N/A
4:51 pm 16:51 Sunny 84 28.9 33 0.6 16 16 N N/A 29.97 1015 10 16 N/A
5:51 pm 17:51 Clear 80 26.7 35 1.7 20 20 N N/A 29.97 1015 10 16 N/A
6:51 pm 18:51 Clear 70 21.1 36 2.2 29 29 NNW 7 11 30.01 1016 10 16 N/A
7:51 pm 19:51 Clear 67 19.4 37 2.8 33 33 WNW 7 11 29.99 1016 10 16 N/A
8:51 pm 20:51 Clear 65 18.3 37 2.8 36 36 NNW 8 13 29.98 1015 10 16 N/A
9:51 pm 21:51 Clear 66 18.9 35 1.7 32 32 NNW 6 9 29.98 1015 10 16 N/A
10:51 pm 22:51 Clear 61 16.1 35 1.7 38 38 N 6 9 29.98 1015 10 16 N/A
11:51 pm 23:51 Clear 56 13.3 35 1.7 46 46 N N/A 29.97 1015 10 16 N/A

Powered by AerisWeather